This is the latest recevied weather packets stored in our database for station/object NR5ON-13. If no packets are shown the sender has not sent any weather packets the latest 10 day(s).
| Time | Temp. | Humidity | Pressure | Rain* | Wind** | Luminosity | Snow |
|---|---|---|---|---|---|---|---|
| 1777734814 | 7.22° C | 74% | 1026.1 hPa | 0 mm | - | - | - |
| 1777734519 | 6.67° C | 72% | 1026.1 hPa | 0 mm | - | - | - |
| 1777734226 | 6.67° C | 72% | 1026 hPa | 0 mm | - | - | - |
| 1777733918 | 6.67° C | 71% | 1026 hPa | 0 mm | - | - | - |
| 1777733623 | 7.22° C | 71% | 1026.1 hPa | 0 mm | - | - | - |
| 1777733328 | 7.22° C | 71% | 1026 hPa | 0 mm | - | - | - |
| 1777733032 | 6.67° C | 71% | 1026 hPa | 0 mm | - | - | - |
| 1777732718 | 6.67° C | 72% | 1026.1 hPa | 0 mm | - | - | - |
| 1777732422 | 6.67° C | 73% | 1026.1 hPa | 0 mm | - | - | - |
| 1777732130 | 6.11° C | 75% | 1025.9 hPa | 0 mm | - | - | - |
| 1777731817 | 6.11° C | 75% | 1025.9 hPa | 0 mm | - | - | - |
| 1777731545 | 5.56° C | 76% | 1026 hPa | 0 mm | - | - | - |
| 1777731229 | 5.56° C | 77% | 1025.9 hPa | 0 mm | - | - | - |
| 1777730935 | 5° C | 79% | 1025.9 hPa | 0 mm | - | - | - |
| 1777730624 | 5° C | 79% | 1025.8 hPa | 0 mm | - | - | - |
| 1777730330 | 5° C | 81% | 1025.9 hPa | 0 mm | - | - | - |
| 1777730036 | 4.44° C | 81% | 1025.9 hPa | 0 mm | - | - | - |
| 1777729720 | 4.44° C | 82% | 1025.9 hPa | 0 mm | - | - | - |
| 1777729426 | 3.89° C | 83% | 1025.8 hPa | 0 mm | - | - | - |
| 1777729131 | 3.89° C | 84% | 1025.7 hPa | 0 mm | - | - | - |
| 1777728836 | 3.89° C | 85% | 1025.7 hPa | 0 mm | - | - | - |
| 1777728522 | 3.33° C | 87% | 1025.7 hPa | 0 mm | - | - | - |
| 1777728227 | 3.33° C | 88% | 1025.7 hPa | 0 mm | - | - | - |
| 1777727933 | 3.33° C | 89% | 1025.7 hPa | 0 mm | - | - | - |
| 1777727623 | 3.33° C | 90% | 1025.7 hPa | 0 mm | - | - | - |
* Rain latest hour (hover to see other rain measurements)
** Current wind speed in m/s (hover to see current wind gust speed)